This is the latest recevied weather packets stored in our database for station/object WP3OF-1. If no packets are shown the sender has not sent any weather packets the latest 10 day(s).
| Time | Temp. | Humidity | Pressure | Rain* | Wind** | Luminosity | Snow |
|---|---|---|---|---|---|---|---|
| 1777465160 | 27.22° C | 81% | 1015.3 hPa | 0 mm | - | - | - |
| 1777464855 | 27.78° C | 80% | 1015.4 hPa | 0 mm | - | - | - |
| 1777464551 | 27.78° C | 81% | 1015.3 hPa | 0 mm | - | - | - |
| 1777464247 | 26.67° C | 82% | 1015.4 hPa | 0 mm | - | - | - |
| 1777463942 | 26.67° C | 83% | 1015.3 hPa | 0 mm | - | - | - |
| 1777463638 | 26.67° C | 83% | 1015.3 hPa | 0 mm | - | - | - |
| 1777463333 | 26.67° C | 83% | 1015.4 hPa | 0 mm | - | - | - |
| 1777463030 | 26.67° C | 84% | 1015.3 hPa | 0 mm | - | - | - |
| 1777462725 | 26.67° C | 84% | 1015.1 hPa | 0 mm | - | - | - |
| 1777462420 | 26.67° C | 84% | 1015.3 hPa | 0 mm | - | - | - |
| 1777462117 | 26.11° C | 85% | 1015.2 hPa | 0 mm | - | - | - |
| 1777461814 | 26.11° C | 85% | 1015.2 hPa | 0 mm | - | - | - |
| 1777461509 | 26.67° C | 85% | 1015 hPa | 0 mm | - | - | - |
| 1777461206 | 26.11° C | 86% | 1014.7 hPa | 0 mm | - | - | - |
| 1777460901 | 26.11° C | 87% | 1014.7 hPa | 0 mm | - | - | - |
| 1777460597 | 26.11° C | 87% | 1014.7 hPa | 0 mm | - | - | - |
| 1777460293 | 25.56° C | 88% | 1014.7 hPa | 0 mm | - | - | - |
| 1777459991 | 25.56° C | 89% | 1014.7 hPa | 0 mm | - | - | - |
| 1777459687 | 25.56° C | 89% | 1014.7 hPa | 0 mm | - | - | - |
| 1777459383 | 25.56° C | 89% | 1014.6 hPa | 0 mm | - | - | - |
| 1777459081 | 25° C | 89% | 1014.4 hPa | 0 mm | - | - | - |
| 1777458778 | 25° C | 89% | 1014.4 hPa | 0 mm | - | - | - |
| 1777458475 | 25° C | 89% | 1014.5 hPa | 0 mm | - | - | - |
| 1777458172 | 25° C | 90% | 1014.5 hPa | 0 mm | - | - | - |
| 1777457866 | 25° C | 90% | 1014.5 hPa | 0 mm | - | - | - |
* Rain latest hour (hover to see other rain measurements)
** Current wind speed in m/s (hover to see current wind gust speed)